848  
ASUS43 KGRB 050411  
RWRGRB  
 
NORTH-CENTRAL AND NORTHEAST WISCONSIN REGIONAL WEATHER ROUNDUP  
NATIONAL WEATHER SERVICE GREEN BAY WI  
1100 PM CDT SAT APR 04 2020  
 
WIZ005-009-010>012-018-019-050500-  
NORTH CENTRAL WISCONSIN  
 
CITY SKY/WX TMP DP RH WIND PRES REMARKS
 
IRONWOOD FAIR 21 19 92 CALM 30.17S  
MANITOWISH WTR FAIR 23 17 78 CALM 30.14S  
ARBOR VITAE FAIR 25 18 76 CALM 30.14S  
EAGLE RIVER FAIR 24 19 81 CALM 30.14R  
LAND O LAKES FAIR 21 18 86 CALM 30.16R  
RHINELANDER FAIR 25 14 63 N3 30.14R  
PHILLIPS FAIR 23 20 90 CALM 30.14S  
ANTIGO FAIR 28 22 79 CALM 30.13S  
TOMAHAWK FAIR 23 20 89 CALM 30.15R  
MERRILL FAIR 28 23 82 CALM 30.15R  

 
 
WIZ013-073-050500-  
NORTHEAST WISCONSIN  
 
CITY SKY/WX TMP DP RH WIND PRES REMARKS
 
IRON MOUNTAIN FAIR 24 16 71 CALM 30.13R  
MARINETTE FAIR 27 24 89 CALM 30.18S  
OCONTO FAIR 31 30 96 CALM 30.17S  

 
 
WIZ017-030-035>037-045-050500-  
CENTRAL WISCONSIN  
 
CITY SKY/WX TMP DP RH WIND PRES REMARKS
 
MEDFORD FAIR 29 24 82 CALM 30.14R  
WAUSAU FAIR 33 22 63 NW5 30.13R  
MOSINEE FAIR 30 21 69 CALM 30.15R  
MARSHFIELD FAIR 32 26 78 NW3 30.13S  
WISC RAPIDS FAIR 30 24 78 CALM 30.15S  
STEVENS POINT FAIR 27 22 82 CALM 30.15R  
WAUPACA FAIR 35 26 67 MISG 30.14S  
SHAWANO FAIR 36 33 89 E6 30.15S  
CLINTONVILLE FAIR 37 23 56 CALM 30.14S  
WAUTOMA FAIR 30 27 88 CALM 30.15S  

 
 
WIZ038-039-048-051-050500-  
FOX VALLEY  
 
CITY SKY/WX TMP DP RH WIND PRES REMARKS
 
NWS GREEN BAY CLOUDY 35 32 88 E5 30.16S  
APPLETON FAIR 36 30 80 E5 30.12S  
OSHKOSH FAIR 38 27 64 NW6 30.13S  
FOND DU LAC FAIR 34 31 88 SE6 30.15R  

 
 
WIZ022-050-052-050500-  
EAST CENTRAL WISCONSIN  
 
CITY SKY/WX TMP DP RH WIND PRES REMARKS
 
EPHRAIM FAIR 29 27 94 SE3 30.16S  
WASHINGTON ISL FAIR 22 22 99 CALM 30.17S  
STURGEON BAY FAIR 29 27 92 CALM 30.18R  
MANITOWOC CLOUDY 34 32 92 SE6 30.17S  
SHEBOYGAN CLOUDY 37 32 82 CALM 30.16S  

 
 
LMZ563-521-522-541>543-050500-  
LAKESHORE  
 
STATION/POSITION TIME TEMP WIND PRES VSBY WAVE
 
AIR SEA DIR/SP/G HT/PER  
(UTC) (F) (DEG/KT/KT) (MB) (MI) (FT/S)  
SHEBOYGAN LKSHOR 0400 35 60/ 2/ 3 N/A  
KEWAUNEE LKSHORE 0324 35 140/ 2/ 6 1021.0  
NORTHPORT PIER 0340 33 80/ 5/ 6 1021.7R  
MENOMINEE LKSHOR 0324 34 39 130/ 5/ 6 1021.4  

 
 
 
CLICK HERE TO GO TO PREVIOUS BULLETINS.

The Nexlab WI Page Main Text Page